Location: Murphys Corner
(39.1062°N, 77.8244°W)
Time: 20:07:57
(UTC+00:00)

Envisat - Pass Details

Date: 07 February 2023
Orbit: 763 x 765 km, 98.2° (Epoch: 24 March)

Event Time Altitude Azimuth Distance (km) Brightness Sun altitude
Rises 09:54:54 0° 4° (N) 3,239 6.3 -27.0°
Reaches altitude 10° 09:57:19 10° 357° (N) 2,308 5.4 -26.6°
Enters shadow 09:57:58 13° 354° (N) 2,076 5.2 -26.4°
